Location: Bo?a Wola
(50.4192°N, 19.7966°E)
Time: 04:10:12
(UTC+00:00)

CZ-4C R/B - Pass Details

Date: 13 September 2024
Orbit: 519 x 1471 km, 63.4° (Epoch: 09 October)

Event Time Altitude Azimuth Distance (km) Brightness Sun altitude
Exits shadow 01:17:55 60° 306° (NW) 867 2.1 -25.8°
Maximum altitude 01:18:10 61° 321° (NW) 868 2.2 -25.8°
Drops below altitude 10° 01:24:05 10° 41° (NE) 2,630 5.8 -25.1°
Sets 01:27:02 0° 45° (NE) 3,745 7.0 -24.8°
